FLOCK 2K-01

Last updated on Wed Feb 14 2018 16:20:52 GMT+0000 (Coordinated Universal Time)

1 42852U 17042AD 18044.68507410 .00006908 00000-0 20140-3 0 9996 2 42852 96.9924 307.4734 0009917 192.3797 167.7205 15.35614020 32677
UTC large
Height (km)
Speed (km/s)
/
Latitude / Longitude
Inclination (degrees)
Orbital Period (minutes)
Azimuth
Elevation
Range (km)
Doppler Factor

Next 0 passes for location: London (51.5072 / 0.1276)

Sorry there are no passes over London.